Location: Alpine
(43.1636°N, 111.0180°W)
Time: 23:54:45
(UTC+00:00)

Vanguard 2 - Visible Passes

Search period start: 28 May 2022 00:00
Search period end: 07 June 2022 00:00
Orbit: 552 x 2935 km, 32.9° (Epoch: 28 May)

Date Brightness Start Highest point End Pass type
(mag) Time Alt. Az. Time Alt. Az. Time Alt. Az.
29 May 10.7 09:40:51 10° SE 09:43:41 11° SE 09:46:49 10° ESE visible
30 May 10.5 09:54:51 10° S 10:00:08 17° SE 10:06:49 10° E visible
31 May 10.3 10:10:28 10° S 10:16:40 22° SE 10:25:22 10° E visible
01 Jun 10.1 10:26:43 11° SSW 10:33:19 28° SE 10:43:23 10° E visible
02 Jun 10.1 10:42:56 11° SSW 10:50:05 34° SSE 11:01:09 10° E visible
03 Jun 10.2 08:57:47 12° SSE 08:59:40 13° SE 09:03:36 10° ESE visible
03 Jun 9.9 10:59:25 10° SW 11:06:58 39° SSE 11:18:44 10° E visible
04 Jun 9.9 09:13:58 16° SSE 09:16:14 18° SE 09:22:22 10° ESE visible
05 Jun 9.6 09:30:11 19° S 09:32:55 24° SE 09:40:25 10° E visible
06 Jun 9.4 09:46:22 21° S 09:49:42 29° SSE 09:58:09 10° E visible
